User: anonymous   Login
Location: San Francisco
(37.7750°N, 122.4180°W)
Time: 20:07:42
(UTC-07:00)
Language:

GP-B - Orbit

View from above orbital plane
View from above orbital plane
View from above satellite
View from above satellite

Ground track
Ground track

The orbit data is extracted from the following two-line orbital elements,

1 28230U 04014A   15143.03582690  .00000543  00000-0  72847-4 0  9995
2 28230 089.8726 135.0759 0002689 075.1576 284.9944 14.78140366597385
Epoch (UTC): 23 May 2015 00:51:35
Eccentricity: 0.0002689
inclination: 89.8726°
perigee height: 633 km
apogee height: 637 km
right ascension of ascending node: 135.0759°
argument of perigee: 75.1576°
revolutions per day: 14.78140366
mean anomaly at epoch: 284.9944°
orbit number at epoch: 59738

The dashed part of the orbit path shows where the satellite is in the earth's shadow,  

DLR